STARLINK-36053 (66875 NORAD) Tracking and Keplerian Element Data

This shows tracking and keplerian element data for the satellite.

Feedback or suggestion? Click here.




ElementValue
Catalog66875
NameSTARLINK-36053
Epoch Orbit263
Epoch Day354.25003472
Epoch Year2025
RAAN76.2544
Inclination43.001
Eccentricity9.44E-05
Argument of Perigee262.0601
Mean Anonmoly277.8221
Mean Motion15.75426798
Decay Rate-0.01728551
L11 66875U 25281AD 25354.25003472 -.01728551 00000+0 -12548-1 0 9993
L22 66875 43.0010 76.2544 0000944 262.0601 277.8221 15.75426798 2638



Live tracking and technical data element details for STARLINK-36053 (NORAD 66875). STARLINK-36053 can be tracked NOW for your location showing map with azimuth and elevation plus other details from your city location.







IsCatalogInMostPopularTable: catalog: 66875, numindb: 18
Update: records affected: 1



GetName: 66875 STARLINK-36053

Hit Count: updated at: Wed, 15 Apr 2026 01:47:08 GMT